[[{"header":{"parameterUnit":"m.s-1","parameterCategory":2,"la1":30.2991,"la2":30.254,"lo1":-89.0895,"lo2":-89.0444,"dy":0.0017,"dx":0.0017,"nx":28,"ny":28,"refTime":"2024-05-09T09:00:00:Z","depth":"0","parameterNumber":2,"parameterNumberName":"U-component_of_CURRENTS"},"data":[0,0,0,0,0,0,0,0,0,0,0,0,0,0,0,0,0,0,0,0,0,0,0,0,0,0,0,0,0,0,0,0,0,0,0,0,0,0,0,0,0,0,0,0,0,0,0,0,0,0,0,0,0,0,0,0,0,0,0.1939,0.194,0,0.1983,0.1983,0.1984,0.1994,0.1994,0.1994,0.1994,0.1992,0.1992,0.1992,0,0,0,0,0,0,0,0,0,0,0,0,0,0.1852,0.1854,0.1939,0.194,0.1941,0.1983,0.1983,0.1984,0.1994,0.1994,0.1994,0.1994,0.1992,0.1992,0.1992,0,0,0,0,0,0,0,0,0,0,0,0,0,0.189,0.1854,0.1939,0.1953,0.1955,0.1983,0.1983,0.1984,0.1994,0.1994,0.1994,0.1994,0.1992,0.1992,0.1992,0.1993,0,0,0.1992,0.1992,0,0,0,0,0,0,0,0,0.1888,0.1893,0.195,0.1952,0.1954,0.1985,0.1952,0.1986,0.1994,0.1976,0.1994,0.1994,0.1987,0.1988,0.1993,0.1993,0.1993,0.1992,0.1992,0.1992,0.1992,0,0,0,0,0,0,0,0.1885,0.1891,0.1954,0.1951,0.1954,0.1953,0.1958,0.1958,0.1979,0.1978,0.1979,0.1989,0.1988,0.1993,0.1993,0.1993,0.1992,0.1992,0.1992,0.1992,0.1972,0.1971,0,0,0,0,0,0,0.1886,0.1889,0.1952,0.1955,0.1923,0.1955,0.1961,0.1973,0.198,0.1982,0.1989,0.1989,0.1993,0.1993,0.1993,0.1989,0.1992,0.1992,0.1992,0.1972,0.1971,0.1971,0,0,0,0,0,0,0.1884,0.1892,0.1951,0.1925,0.1933,0.1957,0.1971,0.1974,0.1983,0.1989,0.199,0.1995,0.1993,0.1993,0.1998,0.1989,0.1992,0.1992,0.1973,0.1972,0.1971,0.1984,0,0,0,0,0,0,0.1882,0.1891,0.1895,0.1925,0.1934,0.1975,0.1971,0.1975,0.199,0.1991,0.1994,0.1994,0.1993,0.1998,0.1998,0.1989,0.1992,0.1973,0.1972,0.1971,0.1984,0.1983,0.1983,0,0,0,0,0,0.1878,0.1888,0.1895,0.1903,0.1941,0.1975,0.198,0.1995,0.199,0.2,0.1999,0.1994,0.1991,0.1998,0.1998,0.1989,0.1974,0.1973,0.1971,0.1984,0.1983,0.1983,0,0,0,0,0,0,0.1855,0.1892,0.1899,0.192,0.1949,0.1978,0.1986,0.1996,0.2004,0.1998,0.1998,0.1999,0.1996,0.199,0.1999,0.1977,0.1977,0.1975,0.1986,0.1985,0.1985,0.2004,0.1992,0,0,0,0,0,0.1852,0.1867,0.1905,0.1922,0.1935,0.1959,0.1972,0.1985,0.1999,0.2003,0.2005,0.1997,0.199,0.1988,0.1984,0.198,0.2027,0.1969,0.1968,0.1968,0.1981,0.2034,0.2041,0.1967,0.1967,0.1967,0,0,0.1847,0.1869,0.1878,0.1917,0.1936,0.1955,0.1966,0.1989,0.1999,0.2,0.2004,0.2,0.1989,0.1984,0.198,0.1979,0.202,0.1966,0.1966,0.198,0.2034,0.2042,0.2049,0.1966,0.1966,0.1966,0,0,0.1849,0.1866,0.188,0.1904,0.1938,0.1952,0.196,0.199,0.1997,0.2008,0.2001,0.2,0.1992,0.1987,0.1981,0.1975,0.2017,0.1959,0.1973,0.2024,0.2032,0.2039,0.2145,0.2161,0.1957,0.1957,0.1957,0,0.1838,0.1864,0.189,0.1912,0.1925,0.195,0.1965,0.1978,0.2004,0.2012,0.2009,0.2004,0.1995,0.199,0.1985,0.1976,0.2033,0.1978,0.2027,0.2035,0.2042,0.2148,0.2166,0.1958,0.1958,0.1958,0.1957,0,0.1859,0.1873,0.1883,0.1913,0.1932,0.195,0.1975,0.1987,0.1992,0.2008,0.2014,0.201,0.2013,0.1996,0.1991,0.2018,0.2056,0.2025,0.2037,0.2051,0.2162,0.2181,0.1958,0.1958,0.1958,0.1958,0,0,0.1844,0.1888,0.1887,0.1898,0.1932,0.195,0.1963,0.1988,0.2005,0.2015,0.2044,0.2019,0.2031,0.2025,0.2015,0.2049,0.2154,0.2061,0.2063,0.2183,0.2323,0.2447,0.2479,0.2136,0.2138,0.214,0.2396,0,0.1846,0.1873,0.1897,0.1913,0.1926,0.1951,0.1966,0.199,0.201,0.2048,0.2049,0.207,0.2037,0.2048,0.2076,0.213,0.2197,0.2091,0.2278,0.2285,0.2405,0.2502,0.2466,0.2698,0.2414,0.2418,0.242,0,0.1853,0.1869,0.1885,0.1914,0.1923,0.1938,0.1968,0.1991,0.2042,0.2063,0.2088,0.2109,0.2158,0.2129,0.2254,0.2192,0.2269,0.2314,0.2324,0.2448,0.2442,0.2628,0.2743,0.2644,0.2449,0.2446,0.2444,0,0.1824,0.1856,0.1863,0.1874,0.1915,0.1926,0.1949,0.1993,0.2032,0.2089,0.214,0.2179,0.2242,0.2304,0.2406,0.2341,0.2582,0.2499,0.2693,0.2705,0.2717,0.2726,0.2769,0.2617,0.2617,0.2616,0.2615,0,0.1812,0.1816,0.1851,0.1858,0.1875,0.1913,0.1952,0.1977,0.2056,0.212,0.2154,0.2239,0.2291,0.2426,0.2476,0.2687,0.2649,0.2749,0.2787,0.2725,0.2731,0.2677,0.2604,0.2625,0.2623,0.2621,0.262,0,0.1777,0.1799,0.1812,0.185,0.1863,0.1878,0.1961,0.1997,0.2073,0.2168,0.22,0.2335,0.253,0.2627,0.2787,0.2824,0.2913,0.3049,0.3012,0.3041,0.3102,0.3032,0.3032,0.2943,0.3304,0.3308,0.3312,0,0.1761,0.1765,0.1799,0.1812,0.1829,0.1871,0.1903,0.1984,0.2037,0.2234,0.2284,0.2522,0.2703,0.3028,0.3149,0.3344,0.3139,0.3392,0.3244,0.316,0.3107,0.2891,0.2795,0.3277,0.3281,0.3283,0.3286,0,0.1729,0.1741,0.1753,0.1782,0.1808,0.1855,0.1915,0.1976,0.2094,0.2234,0.2464,0.2651,0.2997,0.322,0.3478,0.3548,0.3231,0.3459,0.3348,0.3105,0.2891,0.2806,0.3085,0.331,0.3308,0.3306,0.3305,0.3304,0.1702,0.1703,0.1724,0.175,0.1784,0.1841,0.1888,0.1997,0.2148,0.2362,0.2561,0.283,0.3142,0.3539,0.3592,0.3632,0.3503,0.353,0.3468,0.3268,0.3121,0.3511,0.3781,0.3781,0.3782,0.3782,0.3782,0,0.167,0.1681,0.1698,0.1733,0.1764,0.1798,0.1893,0.196,0.2147,0.2383,0.2642,0.3012,0.3289,0.3455,0.3669,0.3622,0.3364,0.3506,0.3129,0.3043,0.34,0.3337,0.3549,0.3549,0.3549,0.3549,0.3549,0.3549,0.1657,0.1656,0.1667,0.1702,0.1737,0.1787,0.1846,0.1973,0.2128,0.2435,0.2645,0.2853,0.3162,0.3469,0.3519,0.3452,0.3133,0.3078,0.2971,0.317,0.3162,0.3154,0.3074,0.3228,0.3228,0.2479,0.2473,0.2469]},{"header":{"parameterUnit":"m.s-1","parameterCategory":2,"la1":30.2991,"la2":30.254,"lo1":-89.0895,"lo2":-89.0444,"dy":0.0017,"dx":0.0017,"nx":28,"ny":28,"refTime":"2024-05-09T09:00:00:Z","depth":"0","parameterNumber":3,"parameterNumberName":"V-component_of_CURRENTS"},"data":[0,0,0,0,0,0,0,0,0,0,0,0,0,0,0,0,0,0,0,0,0,0,0,0,0,0,0,0,0,0,0,0,0,0,0,0,0,0,0,0,0,0,0,0,0,0,0,0,0,0,0,0,0,0,0,0,0,0,-0.127,-0.127,0,-0.1306,-0.1306,-0.1306,-0.13,-0.1299,-0.1299,-0.1299,-0.1264,-0.1263,-0.1262,0,0,0,0,0,0,0,0,0,0,0,0,0,-0.1215,-0.1216,-0.127,-0.127,-0.1271,-0.1306,-0.1306,-0.1306,-0.13,-0.1299,-0.1299,-0.1298,-0.1264,-0.1263,-0.1262,0,0,0,0,0,0,0,0,0,0,0,0,0,-0.1241,-0.1216,-0.127,-0.1274,-0.1275,-0.1306,-0.1306,-0.1306,-0.13,-0.1299,-0.1299,-0.1298,-0.1264,-0.1263,-0.1262,-0.1268,0,0,-0.126,-0.1259,0,0,0,0,0,0,0,0,-0.124,-0.1243,-0.1273,-0.1274,-0.1275,-0.13,-0.1274,-0.1291,-0.13,-0.1287,-0.1299,-0.1298,-0.1272,-0.127,-0.1275,-0.1266,-0.1264,-0.1259,-0.1259,-0.1259,-0.1258,0,0,0,0,0,0,0,-0.1238,-0.1241,-0.1281,-0.1274,-0.1275,-0.1282,-0.1284,-0.1277,-0.1278,-0.1288,-0.1289,-0.1298,-0.1271,-0.1276,-0.1274,-0.1264,-0.126,-0.1259,-0.1258,-0.1258,-0.1224,-0.1224,0,0,0,0,0,0,-0.1239,-0.124,-0.128,-0.1282,-0.1259,-0.1283,-0.1286,-0.129,-0.128,-0.128,-0.1298,-0.1297,-0.1278,-0.1275,-0.1272,-0.1251,-0.1259,-0.1258,-0.1257,-0.1225,-0.1224,-0.1224,0,0,0,0,0,0,-0.1238,-0.1242,-0.1278,-0.1264,-0.127,-0.1285,-0.129,-0.1291,-0.1298,-0.1289,-0.1286,-0.1304,-0.1277,-0.1274,-0.1274,-0.125,-0.1257,-0.1257,-0.1225,-0.1225,-0.1224,-0.1224,0,0,0,0,0,0,-0.1236,-0.1241,-0.1241,-0.1264,-0.1271,-0.1296,-0.1291,-0.1293,-0.1306,-0.1305,-0.1293,-0.1289,-0.1276,-0.1275,-0.1273,-0.1249,-0.1256,-0.1226,-0.1225,-0.1224,-0.1224,-0.1224,-0.1223,0,0,0,0,0,-0.1234,-0.1235,-0.124,-0.1245,-0.1271,-0.1297,-0.1301,-0.1308,-0.1307,-0.1311,-0.1308,-0.129,-0.1268,-0.1275,-0.1272,-0.1247,-0.1226,-0.1225,-0.1224,-0.1225,-0.1224,-0.1223,0,0,0,0,0,0,-0.1203,-0.1235,-0.1242,-0.125,-0.1274,-0.1297,-0.1302,-0.1312,-0.1315,-0.1309,-0.1299,-0.1296,-0.1283,-0.1272,-0.128,-0.1235,-0.1238,-0.1237,-0.1239,-0.1238,-0.1237,-0.1208,-0.1255,0,0,0,0,0,-0.12,-0.1211,-0.1243,-0.1249,-0.1261,-0.1284,-0.1294,-0.1303,-0.1312,-0.1313,-0.1307,-0.1292,-0.1278,-0.1266,-0.1255,-0.124,-0.1222,-0.1217,-0.1217,-0.1216,-0.119,-0.1151,-0.1144,-0.1221,-0.1221,-0.1221,0,0,-0.1189,-0.1209,-0.1214,-0.1244,-0.126,-0.1267,-0.1287,-0.1305,-0.13,-0.1308,-0.1295,-0.1296,-0.1276,-0.1257,-0.1247,-0.1243,-0.1193,-0.1215,-0.1215,-0.1188,-0.1149,-0.1142,-0.1135,-0.1221,-0.1221,-0.1221,0,0,-0.1176,-0.1193,-0.1199,-0.1218,-0.1249,-0.1259,-0.1266,-0.1293,-0.1293,-0.1297,-0.1291,-0.1281,-0.1269,-0.1242,-0.1228,-0.1216,-0.1196,-0.1212,-0.1175,-0.1138,-0.1131,-0.1124,-0.1127,-0.112,-0.1203,-0.1203,-0.1203,0,-0.1156,-0.1167,-0.1204,-0.1215,-0.1215,-0.1253,-0.1247,-0.126,-0.128,-0.1267,-0.1288,-0.1248,-0.1252,-0.1197,-0.1201,-0.121,-0.12,-0.1183,-0.1136,-0.1129,-0.1122,-0.1125,-0.1118,-0.1203,-0.1203,-0.1203,-0.1203,0,-0.1155,-0.1155,-0.116,-0.1176,-0.1186,-0.1189,-0.1212,-0.1213,-0.1222,-0.1227,-0.1196,-0.1203,-0.1169,-0.1175,-0.1189,-0.1133,-0.1149,-0.1148,-0.1137,-0.1114,-0.112,-0.1112,-0.1203,-0.1203,-0.1203,-0.1203,0,0,-0.1114,-0.1148,-0.1144,-0.1129,-0.116,-0.1156,-0.1152,-0.1142,-0.111,-0.1136,-0.1088,-0.109,-0.1095,-0.1079,-0.1087,-0.1065,-0.1045,-0.1088,-0.1086,-0.1088,-0.0989,-0.0946,-0.0935,-0.1035,-0.1033,-0.1031,-0.1025,0,-0.1089,-0.1078,-0.1107,-0.1074,-0.1061,-0.1082,-0.1063,-0.1061,-0.1061,-0.1032,-0.1036,-0.1003,-0.1057,-0.1035,-0.1026,-0.1032,-0.1019,-0.1048,-0.1011,-0.101,-0.0972,-0.0921,-0.0843,-0.0824,-0.1018,-0.1016,-0.1015,0,-0.1067,-0.1057,-0.1022,-0.0993,-0.0988,-0.0972,-0.0919,-0.0913,-0.0898,-0.0897,-0.0877,-0.0891,-0.087,-0.0918,-0.0906,-0.0923,-0.0952,-0.0966,-0.0966,-0.0909,-0.095,-0.0871,-0.0803,-0.0951,-0.1003,-0.1004,-0.1005,0,-0.0995,-0.0986,-0.0941,-0.0938,-0.0924,-0.0892,-0.0878,-0.0859,-0.0824,-0.0802,-0.0767,-0.0767,-0.0742,-0.077,-0.0827,-0.0861,-0.0813,-0.0862,-0.085,-0.0851,-0.0763,-0.0757,-0.082,-0.0835,-0.0835,-0.0835,-0.0835,0,-0.0941,-0.09,-0.0899,-0.0871,-0.0793,-0.0818,-0.0735,-0.0725,-0.0694,-0.0619,-0.0684,-0.0608,-0.0699,-0.0697,-0.0773,-0.0775,-0.0769,-0.0817,-0.0822,-0.0766,-0.0761,-0.0868,-0.0976,-0.0835,-0.0835,-0.0835,-0.0835,0,-0.0853,-0.0865,-0.0802,-0.0773,-0.0756,-0.0693,-0.0642,-0.0581,-0.0576,-0.0477,-0.0462,-0.0474,-0.0466,-0.056,-0.0598,-0.0674,-0.0758,-0.0708,-0.0657,-0.0654,-0.0787,-0.0897,-0.092,-0.0991,-0.0695,-0.0693,-0.0692,0,-0.08,-0.0765,-0.0711,-0.066,-0.0638,-0.0568,-0.0512,-0.0507,-0.0446,-0.0366,-0.0299,-0.0282,-0.0203,-0.0273,-0.0408,-0.051,-0.0681,-0.0542,-0.0581,-0.0753,-0.0881,-0.0961,-0.1028,-0.0496,-0.0493,-0.0491,-0.0489,0,-0.0681,-0.0668,-0.0615,-0.0525,-0.0456,-0.038,-0.0309,-0.0242,-0.0211,-0.0097,0.0057,0.0132,0.0048,0.0028,-0.0163,-0.028,-0.063,-0.0498,-0.0668,-0.0705,-0.08,-0.0884,-0.0591,-0.0469,-0.0471,-0.0473,-0.0474,-0.0475,-0.0573,-0.0513,-0.0456,-0.036,-0.0291,-0.0188,-0.007,0.0027,0.0187,0.0437,0.0403,0.0657,0.0451,0.0233,-0.0014,-0.0414,-0.0473,-0.051,-0.0626,-0.069,-0.0752,-0.0428,-0.0314,-0.0315,-0.0316,-0.0316,-0.0317,0,-0.0419,-0.0379,-0.0294,-0.0182,-0.0074,-0.0077,0.0079,0.0254,0.0525,0.079,0.1009,0.1142,0.0855,0.0449,-0.0111,-0.0444,-0.063,-0.0665,-0.0781,-0.0845,-0.0528,-0.0513,-0.0443,-0.0443,-0.0443,-0.0443,-0.0443,-0.0443,-0.0334,-0.0225,-0.0197,-0.0004,0.0077,0.0286,0.0409,0.0695,0.0946,0.1434,0.171,0.1834,0.1531,0.037,-0.0456,-0.0699,-0.0987,-0.0998,-0.1196,-0.1013,-0.1009,-0.1005,-0.1016,-0.1053,-0.1054,-0.1439,-0.1443,-0.1446]}],[{"header":{"parameterUnit":"m.s-1","parameterCategory":2,"la1":30.2991,"la2":30.254,"lo1":-89.0895,"lo2":-89.0444,"dy":0.0017,"dx":0.0017,"nx":28,"ny":28,"refTime":"2024-05-09T09:00:00:Z","depth":"2","parameterNumber":2,"parameterNumberName":"U-component_of_CURRENTS"},"data":[0,0,0,0,0,0,0,0,0,0,0,0,0,0,0,0,0,0,0,0,0,0,0,0,0,0,0,0,0,0,0,0,0,0,0,0,0,0,0,0,0,0,0,0,0,0,0,0,0,0,0,0,0,0,0,0,0,0,0.1536,0.1537,0,0.1574,0.1574,0.1574,0.1575,0.1574,0.1574,0.1574,0.1528,0.1527,0.1526,0,0,0,0,0,0,0,0,0,0,0,0,0,0.1431,0.1433,0.1536,0.1537,0.1538,0.1574,0.1574,0.1574,0.1575,0.1574,0.1574,0.1574,0.1528,0.1527,0.1526,0,0,0,0,0,0,0,0,0,0,0,0,0,0.1469,0.1433,0.1536,0.1545,0.1547,0.1574,0.1574,0.1574,0.1575,0.1574,0.1574,0.1574,0.1529,0.1527,0.1526,0.1517,0,0,0.152,0.152,0,0,0,0,0,0,0,0,0.1467,0.1473,0.1543,0.1545,0.1547,0.1573,0.152,0.1552,0.1575,0.156,0.1574,0.1574,0.1538,0.1536,0.1538,0.1515,0.1513,0.152,0.1519,0.1518,0.1518,0,0,0,0,0,0,0,0.1465,0.1471,0.1547,0.1544,0.1546,0.1537,0.1542,0.1526,0.1544,0.1561,0.1562,0.1573,0.1538,0.154,0.1537,0.1513,0.152,0.1519,0.1518,0.1517,0.147,0.147,0,0,0,0,0,0,0.1471,0.1469,0.1545,0.1548,0.1511,0.1539,0.1545,0.1561,0.1546,0.1546,0.1573,0.1573,0.1543,0.1539,0.1535,0.1514,0.1518,0.1517,0.1516,0.147,0.147,0.147,0,0,0,0,0,0,0.1468,0.1477,0.1544,0.1512,0.152,0.1542,0.156,0.1562,0.1566,0.1557,0.1554,0.1575,0.1543,0.1538,0.1518,0.1513,0.1516,0.1514,0.1471,0.147,0.147,0.1478,0,0,0,0,0,0,0.1465,0.1476,0.1485,0.1513,0.1523,0.156,0.1561,0.1563,0.1575,0.1575,0.1558,0.1554,0.1542,0.1521,0.1517,0.151,0.1513,0.1471,0.1471,0.147,0.1478,0.1478,0.1478,0,0,0,0,0,0.1461,0.1479,0.1485,0.1494,0.1536,0.156,0.1564,0.1575,0.1575,0.1576,0.1563,0.1554,0.1516,0.152,0.1514,0.1507,0.1471,0.1471,0.147,0.1478,0.1478,0.1478,0,0,0,0,0,0,0.1438,0.1482,0.1489,0.1519,0.1537,0.1562,0.1568,0.1576,0.1568,0.1564,0.155,0.1545,0.1525,0.1516,0.1521,0.1493,0.1492,0.1491,0.15,0.15,0.15,0.1533,0.1512,0,0,0,0,0,0.1438,0.1461,0.1495,0.1516,0.1527,0.1545,0.1556,0.1565,0.1568,0.1565,0.1551,0.1535,0.152,0.151,0.1493,0.1479,0.1536,0.1471,0.1471,0.1471,0.1495,0.1579,0.159,0.1468,0.1468,0.1468,0,0,0.1434,0.1462,0.1474,0.1512,0.1526,0.1535,0.155,0.1568,0.1568,0.1559,0.1542,0.1532,0.1515,0.1498,0.1489,0.149,0.1537,0.1471,0.1471,0.1495,0.158,0.1592,0.1603,0.1468,0.1468,0.1468,0,0,0.1431,0.1462,0.1473,0.1489,0.1517,0.1531,0.1536,0.1555,0.1556,0.1544,0.1538,0.1536,0.1498,0.1502,0.1494,0.1487,0.1533,0.1468,0.1496,0.1576,0.1588,0.1599,0.1702,0.1722,0.147,0.147,0.147,0,0.142,0.1444,0.1478,0.1487,0.1503,0.1527,0.1534,0.1538,0.1544,0.1557,0.1535,0.1531,0.1506,0.1521,0.1509,0.149,0.1554,0.1496,0.1581,0.1593,0.1604,0.1706,0.1729,0.147,0.147,0.147,0.147,0,0.1419,0.1436,0.1444,0.1465,0.1485,0.1498,0.1518,0.1528,0.1529,0.1541,0.1554,0.1538,0.1553,0.1527,0.1508,0.1567,0.1594,0.1572,0.1588,0.1617,0.1723,0.1746,0.1471,0.147,0.147,0.147,0,0,0.1396,0.1436,0.1435,0.1448,0.1477,0.1498,0.1507,0.1539,0.1575,0.156,0.1611,0.1569,0.1596,0.1592,0.1583,0.1632,0.175,0.1633,0.1638,0.1751,0.1962,0.1935,0.1959,0.1749,0.1752,0.1755,0.201,0,0.1378,0.1396,0.1422,0.1436,0.145,0.1488,0.1507,0.1541,0.157,0.1622,0.1631,0.1663,0.1611,0.1636,0.1676,0.1737,0.1809,0.1685,0.1905,0.1912,0.1897,0.1983,0.1824,0.2033,0.2033,0.2037,0.204,0,0.1357,0.138,0.1392,0.1448,0.1461,0.1472,0.1548,0.1574,0.1652,0.1681,0.1733,0.1759,0.1829,0.1778,0.193,0.1858,0.1919,0.1958,0.1969,0.1961,0.1928,0.1999,0.2075,0.2079,0.2076,0.2073,0.207,0,0.1325,0.1359,0.1373,0.1385,0.1446,0.1469,0.1511,0.1589,0.1646,0.1745,0.1819,0.1888,0.1969,0.2034,0.2111,0.2041,0.2301,0.2217,0.226,0.2261,0.2178,0.2164,0.2349,0.2349,0.2348,0.2347,0.2347,0,0.1299,0.1309,0.136,0.1367,0.1414,0.1464,0.1535,0.1593,0.1705,0.1814,0.1863,0.1983,0.204,0.218,0.2203,0.2335,0.2393,0.231,0.2334,0.2174,0.2158,0.2222,0.2204,0.2357,0.2355,0.2353,0.2351,0,0.1256,0.1281,0.1308,0.1371,0.1395,0.1433,0.1549,0.1622,0.1729,0.1887,0.1933,0.2105,0.2279,0.2352,0.2507,0.2486,0.2583,0.2613,0.2434,0.243,0.2465,0.2444,0.2685,0.2686,0.2688,0.2689,0.2689,0,0.1234,0.124,0.1304,0.1336,0.1361,0.143,0.1498,0.1612,0.1717,0.1973,0.2071,0.2281,0.2397,0.2623,0.2655,0.2736,0.2707,0.2624,0.2427,0.2505,0.2505,0.2482,0.246,0.2341,0.2338,0.2337,0.2335,0,0.1203,0.1222,0.1255,0.132,0.1379,0.1455,0.1568,0.1645,0.1829,0.1937,0.2146,0.2249,0.2509,0.2525,0.2649,0.2655,0.2578,0.2589,0.2779,0.2252,0.2193,0.2187,0.2175,0.232,0.2322,0.2323,0.2324,0.2324,0.1182,0.1201,0.125,0.1312,0.1384,0.147,0.1521,0.1632,0.1742,0.192,0.2105,0.2214,0.2347,0.2427,0.2425,0.2443,0.2572,0.2444,0.2445,0.2448,0.2335,0.2278,0.2403,0.2405,0.2407,0.2408,0.2409,0,0.1158,0.1192,0.1247,0.1321,0.1387,0.1434,0.1569,0.1583,0.1646,0.1837,0.194,0.1917,0.1995,0.2125,0.2143,0.2174,0.2095,0.208,0.1952,0.1974,0.1992,0.1847,0.179,0.1787,0.1784,0.1782,0,0,0.1144,0.1183,0.1217,0.1302,0.1356,0.1399,0.1451,0.1458,0.155,0.1569,0.1654,0.1882,0.2058,0.1864,0.189,0.1838,0.1862,0.1775,0.229,0.2161,0.2173,0.2248,0.2057,0,0,0,0,0]},{"header":{"parameterUnit":"m.s-1","parameterCategory":2,"la1":30.2991,"la2":30.254,"lo1":-89.0895,"lo2":-89.0444,"dy":0.0017,"dx":0.0017,"nx":28,"ny":28,"refTime":"2024-05-09T09:00:00:Z","depth":"2","parameterNumber":3,"parameterNumberName":"V-component_of_CURRENTS"},"data":[0,0,0,0,0,0,0,0,0,0,0,0,0,0,0,0,0,0,0,0,0,0,0,0,0,0,0,0,0,0,0,0,0,0,0,0,0,0,0,0,0,0,0,0,0,0,0,0,0,0,0,0,0,0,0,0,0,0,-0.0078,-0.0079,0,-0.0161,-0.0161,-0.0162,-0.0229,-0.023,-0.0231,-0.0232,-0.0343,-0.0345,-0.0347,0,0,0,0,0,0,0,0,0,0,0,0,0,0.0018,0.0017,-0.0078,-0.0079,-0.008,-0.016,-0.0161,-0.0162,-0.0229,-0.023,-0.0231,-0.0232,-0.0342,-0.0345,-0.0347,0,0,0,0,0,0,0,0,0,0,0,0,0,-0.0039,0.0016,-0.0078,-0.0124,-0.0129,-0.016,-0.0161,-0.0163,-0.0229,-0.023,-0.0231,-0.0232,-0.0341,-0.0344,-0.0348,-0.0344,0,0,-0.0358,-0.0359,0,0,0,0,0,0,0,0,-0.0035,-0.0042,-0.0116,-0.0121,-0.0127,-0.0187,-0.0168,-0.0225,-0.0228,-0.019,-0.0232,-0.0233,-0.0293,-0.03,-0.0311,-0.0349,-0.0353,-0.0358,-0.036,-0.0361,-0.0362,0,0,0,0,0,0,0,-0.0031,-0.0039,-0.0109,-0.0117,-0.0124,-0.0142,-0.0151,-0.0179,-0.0233,-0.0193,-0.0198,-0.0209,-0.0296,-0.0308,-0.0314,-0.0355,-0.0358,-0.0361,-0.0363,-0.0364,-0.0441,-0.0441,0,0,0,0,0,0,-0.0022,-0.0035,-0.0107,-0.0112,-0.0085,-0.0143,-0.0153,-0.0165,-0.0232,-0.0244,-0.0208,-0.0212,-0.0301,-0.031,-0.0318,-0.0351,-0.0361,-0.0364,-0.0366,-0.0441,-0.0441,-0.0441,0,0,0,0,0,0,-0.002,-0.0028,-0.0104,-0.0076,-0.0088,-0.0144,-0.0156,-0.0166,-0.0193,-0.0244,-0.0256,-0.0227,-0.0303,-0.0314,-0.0359,-0.0355,-0.0366,-0.0369,-0.044,-0.0441,-0.0441,-0.0395,0,0,0,0,0,0,-0.0017,-0.0027,-0.0035,-0.0076,-0.0089,-0.0121,-0.0156,-0.0167,-0.0198,-0.0204,-0.0263,-0.0274,-0.0304,-0.0353,-0.0362,-0.036,-0.0371,-0.044,-0.0441,-0.0441,-0.0397,-0.0394,-0.0391,0,0,0,0,0,-0.0013,-0.0013,-0.0034,-0.0044,-0.0097,-0.0121,-0.0129,-0.0172,-0.0198,-0.0202,-0.0252,-0.0273,-0.036,-0.0356,-0.0366,-0.0365,-0.044,-0.044,-0.0441,-0.0398,-0.0394,-0.0391,0,0,0,0,0,0,0.0024,-0.0022,-0.0046,-0.0061,-0.009,-0.0133,-0.0144,-0.0174,-0.0215,-0.0228,-0.0278,-0.0292,-0.0329,-0.0353,-0.0348,-0.0387,-0.0402,-0.0404,-0.0366,-0.0363,-0.036,-0.0345,-0.0374,0,0,0,0,0,0.0029,0.0013,-0.0029,-0.0043,-0.0056,-0.0102,-0.0119,-0.0147,-0.0188,-0.0209,-0.0254,-0.0299,-0.0332,-0.0354,-0.0388,-0.0409,-0.0427,-0.0414,-0.0411,-0.0409,-0.0404,-0.0436,-0.0436,-0.0441,-0.0441,-0.0441,0,0,0.0037,0.0011,-0.0,-0.0037,-0.0065,-0.0075,-0.0115,-0.014,-0.0154,-0.0213,-0.0252,-0.0293,-0.0337,-0.0365,-0.0382,-0.0388,-0.0413,-0.0409,-0.0406,-0.0403,-0.0436,-0.0435,-0.0435,-0.0441,-0.0441,-0.0441,0,0,0.006,0.0025,0.0025,0.0004,-0.0034,-0.0061,-0.0069,-0.0116,-0.0143,-0.0183,-0.0227,-0.0269,-0.0325,-0.0353,-0.0373,-0.0375,-0.04,-0.0384,-0.0358,-0.0389,-0.0389,-0.0389,-0.0393,-0.0394,-0.0381,-0.0381,-0.0381,0,0.0072,0.0063,0.0022,0.0021,0.0005,-0.0053,-0.0051,-0.0082,-0.0141,-0.016,-0.0191,-0.0276,-0.0317,-0.0343,-0.0347,-0.0368,-0.0382,-0.0365,-0.0385,-0.0385,-0.0386,-0.0391,-0.0392,-0.0378,-0.0379,-0.0379,-0.0379,0,0.0101,0.0088,0.0087,0.0062,0.0044,0.0034,-0.0011,-0.0038,-0.0086,-0.0122,-0.0171,-0.0232,-0.028,-0.0298,-0.0328,-0.0347,-0.0352,-0.0378,-0.0389,-0.0382,-0.0388,-0.039,-0.0375,-0.0376,-0.0377,-0.0377,0,0,0.0139,0.0113,0.011,0.0107,0.0064,0.0055,0.0031,-0.0003,-0.0017,-0.0086,-0.0106,-0.0178,-0.0218,-0.0244,-0.0284,-0.0314,-0.0332,-0.0345,-0.0348,-0.0342,-0.0382,-0.0352,-0.0352,-0.0363,-0.0364,-0.0364,-0.0377,0,0.0171,0.0181,0.0156,0.0159,0.016,0.0108,0.0095,0.0055,0.0006,-0.0027,-0.0098,-0.0136,-0.0193,-0.0215,-0.0256,-0.0314,-0.0339,-0.0325,-0.0396,-0.0397,-0.0367,-0.0355,-0.035,-0.0359,-0.038,-0.038,-0.038,0,0.0208,0.0208,0.022,0.0208,0.0204,0.0193,0.0161,0.0145,0.0086,0.0051,-0.0006,-0.0065,-0.012,-0.0172,-0.0265,-0.0253,-0.0312,-0.0359,-0.0361,-0.0352,-0.0373,-0.0374,-0.0363,-0.0384,-0.0384,-0.0384,-0.0384,0,0.0255,0.0253,0.0263,0.0257,0.0234,0.0225,0.0208,0.0161,0.0165,0.0099,0.01,0.0002,-0.0024,-0.0128,-0.0224,-0.0252,-0.0312,-0.0365,-0.0389,-0.0387,-0.0406,-0.0404,-0.0428,-0.0428,-0.0428,-0.0428,-0.0427,0,0.0297,0.0303,0.0283,0.0287,0.0303,0.027,0.0278,0.0247,0.0229,0.0267,0.0148,0.0175,-0.0016,-0.0072,-0.0188,-0.0274,-0.0285,-0.0375,-0.039,-0.0387,-0.0384,-0.0431,-0.0431,-0.0428,-0.0428,-0.0428,-0.0428,0,0.0337,0.0324,0.0339,0.0325,0.0322,0.0331,0.0338,0.0356,0.033,0.038,0.0371,0.0301,0.0232,0.0066,-0.0082,-0.0198,-0.0306,-0.0331,-0.0297,-0.0309,-0.0374,-0.0372,-0.0383,-0.0383,-0.0382,-0.0381,-0.0381,0,0.0355,0.0365,0.037,0.0387,0.0376,0.0388,0.041,0.0397,0.0446,0.0494,0.0547,0.0483,0.0477,0.0266,0.003,-0.0172,-0.0219,-0.0297,-0.0363,-0.0356,-0.0371,-0.0369,-0.0368,-0.0367,-0.0367,-0.0366,-0.0366,0,0.0389,0.0386,0.0401,0.0441,0.0464,0.0512,0.0554,0.0622,0.0657,0.0719,0.0829,0.0824,0.0618,0.0405,0.0102,-0.0045,-0.0278,-0.0292,-0.0298,-0.037,-0.034,-0.0354,-0.0354,-0.0362,-0.0362,-0.0362,-0.0363,-0.0363,0.041,0.0435,0.0459,0.0502,0.0548,0.0651,0.0731,0.0812,0.0933,0.1057,0.1044,0.1039,0.0761,0.0377,0.0118,-0.0189,-0.0195,-0.0328,-0.0331,-0.0334,-0.032,-0.029,-0.0298,-0.0298,-0.0298,-0.0298,-0.0298,0,0.0443,0.0476,0.0523,0.0599,0.0687,0.0691,0.0846,0.0945,0.113,0.1204,0.1272,0.1035,0.077,0.0458,0.0012,-0.0247,-0.0304,-0.0333,-0.0359,-0.0361,-0.0364,-0.0354,-0.034,-0.0341,-0.0341,-0.0342,0,0,0.046,0.052,0.0555,0.0711,0.0776,0.0924,0.1037,0.1175,0.1267,0.1367,0.1351,0.1258,0.0874,0.0552,0.0183,-0.0072,-0.0154,-0.0127,-0.0069,-0.0059,-0.0058,-0.0341,-0.0325,0,0,0,0,0]}],[{"header":{"parameterUnit":"m.s-1","parameterCategory":2,"la1":30.2991,"la2":30.254,"lo1":-89.0895,"lo2":-89.0444,"dy":0.0017,"dx":0.0017,"nx":28,"ny":28,"refTime":"2024-05-09T09:00:00:Z","depth":"4","parameterNumber":2,"parameterNumberName":"U-component_of_CURRENTS"},"data":[0,0,0,0,0,0,0,0,0,0,0,0,0,0,0,0,0,0,0,0,0,0,0,0,0,0,0,0,0,0,0,0,0,0,0,0,0,0,0,0,0,0,0,0,0,0,0,0,0,0,0,0,0,0,0,0,0,0,0.0826,0.0826,0,0.0883,0.0883,0.0884,0.0936,0.0937,0.0938,0.0939,0.1033,0.1035,0.1037,0,0,0,0,0,0,0,0,0,0,0,0,0,0.0755,0.0756,0.0826,0.0826,0.0827,0.0883,0.0883,0.0884,0.0936,0.0937,0.0938,0.0939,0.1033,0.1035,0.1037,0,0,0,0,0,0,0,0,0,0,0,0,0,0.0795,0.0756,0.0825,0.0861,0.0865,0.0882,0.0883,0.0884,0.0936,0.0937,0.0938,0.0939,0.1032,0.1035,0.1037,0.1031,0,0,0.1046,0.1047,0,0,0,0,0,0,0,0,0.0793,0.0797,0.0855,0.0859,0.0863,0.0905,0.0893,0.0936,0.0936,0.0908,0.0939,0.094,0.0994,0.1,0.1006,0.1036,0.104,0.1046,0.1048,0.1049,0.1049,0,0,0,0,0,0,0,0.079,0.0795,0.0847,0.0856,0.0861,0.0872,0.0879,0.0901,0.0943,0.091,0.0915,0.0923,0.0996,0.1003,0.1008,0.1041,0.1046,0.1048,0.105,0.1051,0.1165,0.1167,0,0,0,0,0,0,0.0785,0.0793,0.0845,0.0849,0.0831,0.0872,0.088,0.0889,0.0942,0.0952,0.0922,0.0925,0.0998,0.1005,0.1012,0.1099,0.1049,0.1051,0.1053,0.1164,0.1166,0.1167,0,0,0,0,0,0,0.0783,0.0789,0.0843,0.0823,0.0831,0.0873,0.0882,0.089,0.0925,0.0951,0.0961,0.0953,0.0999,0.1008,0.1061,0.11,0.1052,0.1055,0.1162,0.1164,0.1166,0.1215,0,0,0,0,0,0,0.0781,0.0788,0.08,0.0823,0.0832,0.0873,0.0882,0.089,0.0927,0.0933,0.098,0.0988,0.1,0.1057,0.1063,0.1102,0.1057,0.116,0.1163,0.1166,0.1211,0.1218,0.1224,0,0,0,0,0,0.0778,0.0788,0.08,0.0807,0.0845,0.0874,0.088,0.0912,0.0928,0.0947,0.0983,0.0989,0.1078,0.106,0.1067,0.1108,0.1159,0.1162,0.1165,0.1208,0.1217,0.1224,0,0,0,0,0,0,0.0765,0.0795,0.0809,0.0829,0.0859,0.0884,0.0903,0.0925,0.0967,0.098,0.1004,0.1015,0.1077,0.1082,0.1061,0.1149,0.1121,0.1125,0.1151,0.1159,0.1165,0.1165,0.1059,0,0,0,0,0,0.0766,0.0785,0.0814,0.0834,0.0848,0.088,0.0899,0.0924,0.0958,0.0978,0.1011,0.1049,0.1089,0.1116,0.1146,0.119,0.1198,0.1222,0.1229,0.1234,0.1239,0.1277,0.1288,0.1177,0.1177,0.1177,0,0,0.0766,0.0786,0.0797,0.0833,0.0856,0.0885,0.0895,0.0932,0.0967,0.0981,0.1042,0.1073,0.1106,0.1161,0.1189,0.1176,0.1272,0.1238,0.1242,0.1245,0.1282,0.1292,0.1302,0.118,0.1179,0.1179,0,0,0.0772,0.0794,0.0812,0.0839,0.0882,0.0902,0.092,0.0961,0.0993,0.1049,0.1073,0.1125,0.1182,0.1214,0.1237,0.1294,0.1304,0.1312,0.1348,0.1385,0.1394,0.1403,0.1435,0.1446,0.1316,0.1316,0.1316,0,0.0773,0.0801,0.0823,0.0851,0.0878,0.0914,0.0946,0.0979,0.1037,0.107,0.1078,0.1177,0.1206,0.1276,0.1304,0.1309,0.1332,0.1316,0.1393,0.1402,0.1409,0.144,0.1451,0.1319,0.1318,0.1318,0.1318,0,0.079,0.0823,0.0837,0.0885,0.0915,0.095,0.0995,0.1038,0.1081,0.1119,0.1201,0.1238,0.13,0.1321,0.1337,0.1412,0.1412,0.1396,0.1372,0.1423,0.1453,0.1463,0.1322,0.1321,0.1321,0.132,0,0,0.0767,0.0836,0.0845,0.0876,0.094,0.0965,0.1026,0.109,0.1142,0.12,0.1268,0.134,0.1368,0.1395,0.142,0.1458,0.1537,0.146,0.1461,0.149,0.1629,0.1556,0.156,0.1541,0.1543,0.1545,0.1631,0,0.0779,0.0832,0.0868,0.0928,0.0959,0.1013,0.1066,0.1132,0.1194,0.1267,0.1319,0.1395,0.1394,0.144,0.1478,0.1529,0.1567,0.1516,0.1578,0.1579,0.1506,0.157,0.1551,0.1639,0.1641,0.1643,0.1644,0,0.0785,0.0822,0.088,0.0957,0.0976,0.1021,0.1114,0.1169,0.1273,0.1326,0.1402,0.1449,0.1533,0.1515,0.1614,0.1587,0.1618,0.164,0.1643,0.1564,0.1526,0.1576,0.1663,0.1662,0.1661,0.1659,0.1658,0,0.0754,0.0831,0.0878,0.0905,0.0995,0.1039,0.1094,0.1193,0.1251,0.1374,0.1436,0.1522,0.1588,0.1633,0.1696,0.1669,0.1792,0.1752,0.1708,0.1704,0.172,0.171,0.1814,0.1814,0.1813,0.1813,0.1813,0,0.0748,0.0787,0.0872,0.0898,0.0962,0.1031,0.1114,0.1186,0.1294,0.1371,0.1468,0.1539,0.1625,0.1703,0.173,0.1764,0.1821,0.173,0.1726,0.1739,0.1731,0.1728,0.1717,0.1816,0.1816,0.1815,0.1814,0,0.0709,0.0766,0.0823,0.0919,0.0951,0.1,0.1114,0.117,0.1288,0.1393,0.1439,0.1579,0.1685,0.1757,0.1848,0.1808,0.1844,0.1838,0.187,0.1864,0.1718,0.1709,0.1785,0.1784,0.1782,0.1781,0.178,0,0.0694,0.0721,0.0822,0.0857,0.0906,0.0985,0.1038,0.1155,0.1215,0.1405,0.1444,0.16,0.1683,0.1751,0.1829,0.1879,0.1857,0.1856,0.1762,0.173,0.1718,0.1711,0.1704,0.1778,0.1777,0.1777,0.1776,0,0.0662,0.0705,0.075,0.0822,0.0881,0.0939,0.1024,0.1057,0.12,0.1316,0.1426,0.1509,0.1631,0.1703,0.177,0.1793,0.1843,0.184,0.1841,0.1752,0.1721,0.1709,0.1704,0.1771,0.1772,0.1772,0.1773,0,0.0636,0.0656,0.072,0.0777,0.0842,0.0878,0.0931,0.1008,0.108,0.1275,0.131,0.1484,0.1609,0.1663,0.1722,0.175,0.1712,0.1639,0.165,0.1657,0.1578,0.1518,0.1517,0,0,0,0,0,0.0607,0.0624,0.0671,0.0726,0.0784,0.0823,0.0915,0.097,0.1102,0.1143,0.1222,0.1333,0.145,0.1538,0.1543,0.1672,0.1716,0.1671,0.1635,0.1743,0.1749,0.1669,0,0,0,0,0,0,0.0585,0.0626,0.0648,0.0669,0.0693,0.0748,0.0802,0.0892,0.0917,0.1061,0.1129,0.1249,0.1376,0.1432,0.1515,0.1542,0.1494,0.1773,0.177,0.1739,0.1745,0.1749,0.167,0,0,0,0,0]},{"header":{"parameterUnit":"m.s-1","parameterCategory":2,"la1":30.2991,"la2":30.254,"lo1":-89.0895,"lo2":-89.0444,"dy":0.0017,"dx":0.0017,"nx":28,"ny":28,"refTime":"2024-05-09T09:00:00:Z","depth":"4","parameterNumber":3,"parameterNumberName":"V-component_of_CURRENTS"},"data":[0,0,0,0,0,0,0,0,0,0,0,0,0,0,0,0,0,0,0,0,0,0,0,0,0,0,0,0,0,0,0,0,0,0,0,0,0,0,0,0,0,0,0,0,0,0,0,0,0,0,0,0,0,0,0,0,0,0,0.0451,0.045,0,0.042,0.042,0.042,0.0395,0.0395,0.0394,0.0394,0.0302,0.03,0.0298,0,0,0,0,0,0,0,0,0,0,0,0,0,0.0453,0.0453,0.0451,0.045,0.045,0.042,0.042,0.042,0.0395,0.0395,0.0394,0.0394,0.0303,0.03,0.0298,0,0,0,0,0,0,0,0,0,0,0,0,0,0.044,0.0453,0.0451,0.0434,0.0433,0.0421,0.042,0.0419,0.0395,0.0395,0.0394,0.0394,0.0304,0.03,0.0297,0.0284,0,0,0.0287,0.0285,0,0,0,0,0,0,0,0,0.0441,0.044,0.0437,0.0435,0.0433,0.0411,0.0387,0.0371,0.0395,0.0409,0.0394,0.0394,0.0333,0.0328,0.0323,0.0279,0.0275,0.0287,0.0285,0.0283,0.0282,0,0,0,0,0,0,0,0.0442,0.0441,0.0438,0.0437,0.0435,0.0417,0.0415,0.0384,0.0372,0.0408,0.0406,0.0403,0.0332,0.0326,0.0321,0.0274,0.0287,0.0284,0.0282,0.028,0.0187,0.0186,0,0,0,0,0,0,0.0448,0.0442,0.0439,0.0438,0.0437,0.0417,0.0415,0.0419,0.0374,0.0367,0.0403,0.0402,0.0332,0.0325,0.0317,0.0288,0.0283,0.028,0.0278,0.0187,0.0187,0.0186,0,0,0,0,0,0,0.0449,0.0449,0.0441,0.0439,0.0437,0.0418,0.0422,0.0418,0.0417,0.0371,0.0363,0.0407,0.0332,0.0322,0.0291,0.0285,0.0279,0.0276,0.0188,0.0187,0.0187,0.0237,0,0,0,0,0,0,0.0449,0.0449,0.0457,0.044,0.0437,0.0441,0.0422,0.0418,0.0416,0.0414,0.0371,0.0362,0.0331,0.0297,0.0288,0.028,0.0273,0.0189,0.0188,0.0187,0.0236,0.0238,0.024,0,0,0,0,0,0.0449,0.0464,0.0458,0.0458,0.0448,0.0441,0.0438,0.0423,0.0416,0.042,0.0387,0.0364,0.0284,0.0294,0.0284,0.0275,0.0189,0.0188,0.0187,0.0235,0.0238,0.024,0,0,0,0,0,0,0.0469,0.0463,0.0456,0.0468,0.0457,0.0437,0.0442,0.043,0.0409,0.0406,0.0363,0.0351,0.032,0.0291,0.0302,0.0243,0.023,0.0227,0.027,0.0272,0.0274,0.028,0.027,0,0,0,0,0,0.0478,0.0489,0.0473,0.0484,0.0482,0.0463,0.046,0.0449,0.0427,0.0419,0.0387,0.0347,0.0307,0.0287,0.025,0.0224,0.0197,0.0208,0.021,0.0212,0.0209,0.0168,0.0166,0.0183,0.0183,0.0183,0,0,0.0491,0.0487,0.0494,0.0489,0.0481,0.0476,0.0461,0.0461,0.0452,0.041,0.039,0.0355,0.0301,0.0269,0.0251,0.0245,0.0195,0.0211,0.0213,0.0208,0.0166,0.0165,0.0163,0.0182,0.0182,0.0182,0,0,0.0511,0.0516,0.0526,0.0519,0.0509,0.0496,0.0499,0.048,0.047,0.0448,0.041,0.0374,0.0322,0.0281,0.0252,0.0242,0.0208,0.0228,0.0242,0.0203,0.0202,0.02,0.0177,0.0172,0.0229,0.0229,0.0229,0,0.0522,0.053,0.0527,0.0527,0.0522,0.0507,0.0507,0.0494,0.0466,0.0453,0.0447,0.0363,0.0324,0.0271,0.0266,0.0247,0.0225,0.0242,0.0207,0.0205,0.0202,0.0178,0.0173,0.0231,0.0231,0.0231,0.023,0,0.0539,0.0545,0.0552,0.0544,0.0541,0.0543,0.0522,0.0515,0.0501,0.0479,0.0437,0.0387,0.0335,0.0316,0.0287,0.0244,0.0235,0.0218,0.0207,0.0204,0.0179,0.0173,0.0234,0.0234,0.0233,0.0232,0,0,0.0556,0.0562,0.0563,0.0563,0.055,0.0549,0.0539,0.0519,0.0512,0.0479,0.0457,0.039,0.0367,0.0333,0.0292,0.0256,0.0224,0.0233,0.023,0.0221,0.0148,0.0127,0.0118,0.0204,0.0203,0.0202,0.0143,0,0.0564,0.0573,0.0572,0.0576,0.0576,0.0563,0.0556,0.0537,0.0517,0.0494,0.044,0.0406,0.0372,0.0353,0.0309,0.0244,0.0207,0.0242,0.0142,0.0139,0.013,0.011,0.0198,0.0138,0.0137,0.0136,0.0135,0,0.057,0.0576,0.0586,0.059,0.0591,0.0592,0.0581,0.0573,0.0537,0.0523,0.048,0.0441,0.0378,0.0356,0.0248,0.0273,0.0213,0.0165,0.0161,0.0117,0.0106,0.0135,0.0123,0.0124,0.0125,0.0126,0.0126,0,0.0572,0.0582,0.0594,0.0594,0.0597,0.0601,0.0602,0.058,0.0584,0.0543,0.0542,0.0459,0.0429,0.0339,0.0243,0.0244,0.0128,0.0117,0.004,0.0039,0.0056,0.0058,0.0035,0.0035,0.0035,0.0035,0.0036,0,0.0569,0.0578,0.0601,0.0605,0.0622,0.0619,0.0634,0.0621,0.0617,0.0623,0.0562,0.0547,0.0424,0.0346,0.025,0.0128,0.0132,0.0035,0.0015,0.008,0.0085,0.0052,0.0055,0.0033,0.0034,0.0034,0.0035,0,0.0558,0.0574,0.0591,0.0612,0.0623,0.0634,0.0669,0.0682,0.0677,0.0683,0.0677,0.061,0.0504,0.0379,0.0231,0.0147,0.0028,-0.0018,0.0071,0.0059,-0.0034,-0.0028,-0.011,-0.0111,-0.0112,-0.0113,-0.0114,0,0.0549,0.0559,0.0599,0.0619,0.0632,0.0659,0.0685,0.0703,0.0727,0.0723,0.0729,0.064,0.0574,0.0363,0.022,0.0027,-0.0004,-0.0061,-0.0066,-0.0042,-0.0053,-0.0045,-0.0038,-0.0116,-0.0116,-0.0117,-0.0117,0,0.053,0.0554,0.0572,0.0619,0.0655,0.0699,0.0742,0.0767,0.0792,0.0793,0.0766,0.0655,0.053,0.0359,0.0205,0.0068,-0.0023,-0.0074,-0.0073,-0.0077,-0.005,-0.0058,-0.005,-0.0121,-0.012,-0.012,-0.012,0,0.0519,0.0533,0.0572,0.0608,0.0665,0.0726,0.0749,0.0784,0.0809,0.0814,0.0801,0.0672,0.0598,0.038,0.0242,0.0097,0.0055,0.0012,0.0008,0.0011,0.0054,0.0107,0.0061,0,0,0,0,0,0.0499,0.0519,0.0558,0.0609,0.0672,0.0712,0.0782,0.0809,0.0841,0.0827,0.0819,0.0703,0.0491,0.0402,0.0252,0.0203,0.0021,0.0021,-0.0033,-0.0143,-0.0139,-0.0112,0,0,0,0,0,0,0.0486,0.0521,0.0547,0.061,0.065,0.0727,0.078,0.0806,0.0803,0.081,0.0701,0.0654,0.0448,0.057,0.0243,0.02,0.0143,-0.0076,-0.0079,-0.0146,-0.0142,-0.0138,-0.0109,0,0,0,0,0]}]]